Regional Weather Roundup
Issued by NWS

Home | Current Version | Previous Version | Text Only | Print | Product List | Glossary Off
Versions: 1 2 3 4 5 6 7 8 9 10 11 12 13 14 15 16 17 18 19 20 21 22 23 24 25 26 27 28 29 30 31 32 33 34 35 36 37 38 39 40 41 42 43 44 45 46 47 48 49 50

000
ASUS45 KTFX 261110
RWRMT
MONTANA REGIONAL WEATHER ROUNDUP
NATIONAL WEATHER SERVICE GREAT FALLS MT
500 AM MDT TUE MAY 26 2015

NOTE: "FAIR" INDICATES FEW OR NO CLOUDS BELOW 12000 FEET WITH NO
SIGNIFICANT WEATHER AND/OR OBSTRUCTIONS TO VISIBILITY.

MTZ001>007-043-261200-
WEST OF THE DIVIDE

CITY           SKY/WX    TMP DP  RH WIND       PRES   REMARKS
KALISPELL      PTSUNNY   49  47  93 CALM      29.94S
MISSOULA       CLOUDY    42  40  92 CALM      29.97F
BUTTE          CLOUDY    46  43  89 S3        29.99S
MULLAN PASS    LGT RAIN  43  38  82 SW6       29.99R
DEER LODGE       N/A     48  46  93 CALM      30.01S
EUREKA           N/A     52  50  93 W3          N/A
HAMILTON         N/A     41  39  93 CALM      29.97R
LIBBY            N/A     46  45  93 CALM      29.97R
RONAN            N/A     41  39  92 CALM      30.00S
THOMPSON FALLS   N/A     48  47  97 SW2       30.01R
$$

MTZ008-052>055-261200-
SOUTHWEST MONTANA

CITY           SKY/WX    TMP DP  RH WIND       PRES   REMARKS
BOZEMAN        LGT RAIN  50  48  93 CALM      29.98R
DILLON         MOCLDY    46  43  89 S7        29.98S
W YELLOWSTONE  CLOUDY    45  41  87 CALM      30.02F
THREE FORKS      N/A     51  23  33 CALM      29.97S
TWIN BRIDGES     N/A     49  44  83 S3        29.98S
$$

MTZ009-010-012-014-046-048-049-054-261200-
EAST SLOPES AND CENTRAL MONTANA

CITY           SKY/WX    TMP DP  RH WIND       PRES   REMARKS
CUT BANK       CLOUDY    50  49  96 S5        29.93R
GREAT FALLS    RAIN      51  50  96 S6        29.92S
MALMSTROM AFB  LGT RAIN  51  50  97 S5        29.92S
HELENA         LGT RAIN  53  49  86 E3        29.94S
CONRAD           N/A     52  52 100 SE3       29.94S
$$

MTZ011-013-016-021-045-047-050-051-261200-
NORTH CENTRAL MONTANA

CITY           SKY/WX    TMP DP  RH WIND       PRES   REMARKS
HAVRE          MOCLDY    49  45  86 SW7       29.88F
LEWISTOWN      CLOUDY    51  46  83 SW6       29.93S
N BAR RANCH    CLOUDY    48  45  87 CALM      29.96R
CHINOOK          N/A     48  45  87 CALM      29.89S
FORT BENTON      N/A     55  52  88 SW8       29.91S
$$

MTZ017>020-022>027-061-062-261200-
NORTHEAST MONTANA

CITY           SKY/WX    TMP DP  RH WIND       PRES   REMARKS
GLASGOW        CLEAR     50  45  83 E9        29.90S
JORDAN           N/A     43  42  97 CALM      29.91R
SIDNEY         CLEAR     45  41  87 CALM      29.94R
WOLF POINT     CLEAR     44  40  85 CALM      29.92S
MALTA            N/A     47  42  82 CALM      29.87R
POPLAR           N/A     46  45  93 N3        29.93R
SCOBEY           N/A     44  38  79 CALM      29.91S
$$

MTZ028>42-056>058-261200-
SOUTHCENTRAL AND SOUTHEAST MONTANA

CITY           SKY/WX    TMP DP  RH WIND       PRES   REMARKS
BAKER          CLOUDY    43  42  97 SE6       29.96S
BILLINGS       PTCLDY    48  45  89 W3        29.92R
LIVINGSTON     MOCLDY    51  44  77 SW9       29.95R
MILES CITY     CLEAR     49  48  97 SE3       29.91S
BIG TIMBER       N/A     48  45  87 CALM      29.95R
EKALAKA          N/A     50  47  89 SE5       29.94S
FORSYTH          N/A     45  45 100 NE3       29.90S
LAUREL           N/A     46  40  79 CALM      29.91R
ROUNDUP          N/A     46  41  83 CALM      29.84R
$$

REGIONAL REPORTS...DAKOTAS

CITY           SKY/WX    TMP DP  RH WIND       PRES   REMARKS
WILLISTON      CLEAR     46  44  93 SW3       29.92S
MINOT          CLEAR     57  46  66 W13       29.86R
DICKINSON      FOG       43  42  97 W5        29.94R VSB 1/4
BEACH          FOG       41  41 100 CALM      29.96S VSB<1/4
CROSBY         FAIR      55  55 100 S12       29.90S
WATFORD CITY   FAIR      43  43 100 SW6       29.92S
BISMARCK       CLEAR     51  48  89 SW5       29.91R
GRAND FORKS    FAIR      54  50  86 S12       29.81R
FARGO          FAIR      49  47  93 S5        29.86S
BUFFALO SD       N/A     44  43  96 CALM      29.90S
RAPID CITY     CLOUDY    50  49  96 NE3       29.96S
$$

REGIONAL REPORTS...WYOMING/IDAHO/WASHINGTON

CITY           SKY/WX    TMP DP  RH WIND       PRES   REMARKS
GILLETTE       FOG       40  39  97 CALM      29.96R VSB 1/2
SHERIDAN       CLEAR     39  37  92 CALM      29.94R
BUFFALO WY     CLEAR     44  38  79 W3        29.96R
CODY           PTCLDY    50  41  71 W5        29.95R
YELLOWSTONE LA   N/A     36  35  96 CALM      30.09S
IDAHO FALLS    PTCLDY    45  43  93 CALM      29.98R
SALMON         CLOUDY    46  45  93 CALM      29.98F
BOISE          CLEAR     53  48  83 SE3       29.91F
SPOKANE        MOCLDY    53  50  89 CALM      29.92S
$$

REGIONAL REPORTS...ALBERTA

CITY           SKY/WX    TMP DP  RH WIND       PRES   REMARKS
EDMONTON       CLEAR     52  39  62 NW5       29.90R
CALGARY        MOCLDY    54  41  62 NW6       29.93S
LETHBRIDGE     CLOUDY    52  48  87 W10       29.89R
MEDICINE HAT   CLEAR     50  41  71 CALM      29.86S
$$

REGIONAL REPORTS...SASKATCHEWAN

CITY           SKY/WX    TMP DP  RH WIND       PRES   REMARKS
SWIFT CURRENT  CLEAR     54  46  76 SW13      29.88R
REGINA         PTCLDY    52  43  71 SW6       29.87R
SASKATOON      PTCLDY    48  43  81 W5        29.85R
$$



USA.gov is the U.S. government's official web portal to all federal, state and local government web resources and services.